YZ-1 R/B, 43650

Orbit data source: Space-Track

YZ-1 R/B, 43650 is space debris originally from a launch on Mon, 15 Oct 2018 UTC launched from the Xichang Space Center, China (XSC). Debris objects in space refer to the collection of defunct objects orbiting the Earth. Examples of debris include non-operational satellites, rocket bodies, and fragments generated from explosions, collisions, or faulty payload assembly.

Loading next visibility...
YZ-1 R/B details
Identifier
43650, 2018-078D
Orbit
Active
Last TLE update1 day ago
Origin
Flag of CNCASC (CN / PRC)
ManufacturerCALT
MissionSpacecraft
Bus & MotorYZ-1, Unknown motor
Mass~5,815 kg wet, ~5,815 kg dry
Launch date (UTC)
2018-10-15 (6 years ago)
Launch vehicleUnknown
Launch site
Xichang Space Center, China (XSC)
Object type
Payload
Rocket body
Debris
Shape & HBRDouble Cone, 4 m
Radar Cross Section5.890 m², Large (>1 m²)

Expand to show TLE details & history

TLE from 1 day ago
0 YZ-1 R/B
1 43650U 18078D   24360.42980078 -.00000076  00000-0  00000-0 0  9999
2 43650  54.4829 325.8853 0106579  54.7416 306.2445  1.77586102 40196
Epoch: 2024-12-25T10:18Z
Definitive object data (Epoch: 2024-12-25T10:18:54.787Z)
Latitude-0.00006°
Longitude76.71568°
Altitude22,247.914 km
Speed3.743 km/s
True Right ascension21h 43m 28s
True Declination0° 00' 00"
Sunlit
Object was in daylight at TLE epoch
Visualization TLE readout
Latitude8.94493°
Longitude-109.7718°
Altitude22,548.583 km
Speed3.704 km/s
Apparent Right ascension08h 58m 00s
Apparent Declination0° 44' 09"
Sunlit
Object is in daylight
Visualization observer readout
Local Sidereal Time18:59:06
Azimuth318.832° NNW
Elevation-41.129°
Doppler factor1
Orbital elements
Apogee altitude22,733.532 km
Perigee altitude22,119.538 km
Semi-major axis28,804.672 km
Eccentricity0.0106579
Inclination54.4829°
RAAN325.8853°
Arg. of periapsis54.7416°
True anomaly305.25175°
Mean anomaly306.2445°
Eccentric anomaly305.7489°
Mean motion0.44397 °/min
BSTARUnknown
Orbital period810.87 mins
Loading maneuver chart data...
Loading historical data...
Loading historical data...
Loading historical data...
Loading historical data...
Loading historical data...
Loading historical data...
Loading historical data...
Other satellites on launch #78 in the year 2018 (2018-10-15 UTC)

YZ-1 R/B Visibility forecast

Observer location: undefined°, undefined

Span
Click to sort rows by Start time (UTC) header in descending order
Start Az.
Max El. time (UTC)
Max El. Az.
Max El.
End time (UTC)
End Az.
451 mins2024-12-27 03:16:24.880Z262.61° W2024-12-27 07:30:24.880Z62.856° ENE44.94°2024-12-27 10:47:24.880Z167.165° S
|